�������l�o���
Date,Time,MP-1(��Sv/h),MP-2(��Sv/h),MP-3(��Sv/h),MP-4(��Sv/h),MP-5(��Sv/h),MP-6(��Sv/h),MP-7(��Sv/h),MP-8(��Sv/h),����,����(m/s),���J
2023/04/21,00:00,0.571,0.831,0.502,1.035,0.734,0.329,0.583,0.551,��쐼,7.0,��
2023/04/21,00:10,0.570,0.831,0.502,1.034,0.736,0.327,0.583,0.549,��쐼,5.9,��
2023/04/21,00:20,0.571,0.833,0.502,1.036,0.735,0.328,0.582,0.549,�쐼,4.2,��
2023/04/21,00:30,0.571,0.828,0.502,1.034,0.734,0.327,0.582,0.548,���쐼,3.7,��
2023/04/21,00:40,0.570,0.830,0.502,1.034,0.734,0.329,0.582,0.549,��,3.7,��
2023/04/21,00:50,0.569,0.831,0.501,1.036,0.733,0.329,0.583,0.549,���쐼,2.6,��
2023/04/21,01:00,0.571,0.831,0.501,1.034,0.736,0.329,0.583,0.549,���쐼,4.9,��
2023/04/21,01:10,0.570,0.830,0.501,1.036,0.736,0.328,0.582,0.549,���쐼,4.6,��
2023/04/21,01:20,0.570,0.829,0.502,1.034,0.735,0.328,0.584,0.549,��,6.4,��
2023/04/21,01:30,0.570,0.830,0.502,1.035,0.734,0.329,0.584,0.548,���쐼,7.1,��
2023/04/21,01:40,0.571,0.829,0.502,1.036,0.737,0.328,0.582,0.549,��,10.0,��
2023/04/21,01:50,0.570,0.829,0.503,1.036,0.735,0.328,0.583,0.550,���쐼,8.2,��
2023/04/21,02:00,0.571,0.829,0.504,1.036,0.736,0.327,0.584,0.551,���쐼,9.1,��
2023/04/21,02:10,0.571,0.828,0.502,1.036,0.734,0.328,0.583,0.550,���쐼,5.6,��
2023/04/21,02:20,0.572,0.829,0.502,1.036,0.733,0.327,0.582,0.547,��,4.0,��
2023/04/21,02:30,0.571,0.828,0.503,1.035,0.735,0.327,0.584,0.548,��,7.7,��
2023/04/21,02:40,0.572,0.830,0.502,1.035,0.734,0.328,0.583,0.549,��,6.4,��
2023/04/21,02:50,0.570,0.830,0.501,1.037,0.735,0.329,0.581,0.550,��,6.3,��
2023/04/21,03:00,0.569,0.828,0.502,1.036,0.736,0.327,0.583,0.550,��,5.5,��
2023/04/21,03:10,0.570,0.830,0.501,1.035,0.735,0.328,0.581,0.549,��,4.5,��
2023/04/21,03:20,0.570,0.829,0.502,1.037,0.735,0.327,0.583,0.550,��,4.6,��
2023/04/21,03:30,0.568,0.829,0.501,1.036,0.734,0.327,0.584,0.549,�k��,2.6,��
2023/04/21,03:40,0.571,0.829,0.502,1.037,0.734,0.328,0.583,0.550,���쐼,2.3,��
2023/04/21,03:50,0.571,0.831,0.503,1.035,0.736,0.328,0.581,0.551,�쐼,1.5,��
2023/04/21,04:00,0.571,0.832,0.502,1.036,0.734,0.327,0.583,0.551,���쐼,2.3,��
2023/04/21,04:10,0.571,0.830,0.501,1.034,0.734,0.328,0.583,0.550,���쐼,3.3,��
2023/04/21,04:20,0.571,0.830,0.502,1.035,0.734,0.327,0.583,0.549,���쐼,3.6,��
2023/04/21,04:30,0.571,0.831,0.503,1.035,0.735,0.328,0.583,0.550,��,3.8,��
2023/04/21,04:40,0.571,0.829,0.503,1.036,0.737,0.329,0.582,0.549,���쐼,5.2,��
2023/04/21,04:50,0.572,0.829,0.503,1.034,0.737,0.328,0.583,0.552,��,2.6,��
2023/04/21,05:00,0.572,0.829,0.502,1.035,0.736,0.329,0.584,0.550,��,3.4,��
2023/04/21,05:10,0.571,0.831,0.503,1.036,0.737,0.328,0.582,0.551,��,3.7,��
2023/04/21,05:20,0.569,0.830,0.501,1.034,0.734,0.328,0.584,0.550,��,4.4,��
2023/04/21,05:30,0.572,0.830,0.502,1.036,0.735,0.329,0.584,0.550,��,5.7,��
2023/04/21,05:40,0.570,0.831,0.501,1.037,0.736,0.327,0.583,0.550,��,5.6,��
2023/04/21,05:50,0.570,0.828,0.502,1.035,0.734,0.327,0.584,0.549,��쐼,3.9,��
2023/04/21,06:00,0.570,0.830,0.502,1.037,0.734,0.328,0.583,0.550,��쓌,3.5,��
2023/04/21,06:10,0.570,0.832,0.502,1.035,0.735,0.327,0.583,0.551,��쓌,4.1,��
2023/04/21,06:20,0.569,0.830,0.501,1.036,0.735,0.327,0.584,0.552,��쓌,4.4,��
2023/04/21,06:30,0.570,0.828,0.503,1.037,0.737,0.328,0.583,0.550,��쓌,4.8,��
2023/04/21,06:40,0.570,0.827,0.504,1.036,0.734,0.328,0.584,0.550,��쓌,5.6,��
2023/04/21,06:50,0.570,0.827,0.501,1.037,0.734,0.327,0.584,0.550,��,6.3,��
2023/04/21,07:00,0.570,0.827,0.501,1.036,0.735,0.326,0.583,0.552,��,4.5,��
2023/04/21,07:10,0.570,0.829,0.502,1.037,0.735,0.326,0.583,0.551,��쓌,5.6,��
2023/04/21,07:20,0.568,0.829,0.502,1.036,0.735,0.326,0.584,0.550,��,5.2,��
2023/04/21,07:30,0.570,0.827,0.503,1.037,0.733,0.326,0.584,0.549,��,4.8,��
2023/04/21,07:40,0.569,0.827,0.502,1.037,0.733,0.327,0.582,0.549,��,3.8,��
2023/04/21,07:50,0.570,0.827,0.503,1.039,0.735,0.326,0.583,0.549,��쓌,3.2,��
2023/04/21,08:00,0.569,0.828,0.502,1.039,0.734,0.327,0.583,0.548,��쐼,2.9,��
2023/04/21,08:10,0.569,0.825,0.503,1.038,0.736,0.327,0.582,0.547,���쐼,2.3,��
2023/04/21,08:20,0.572,0.828,0.503,1.035,0.735,0.327,0.582,0.548,�k��,1.9,��
2023/04/21,08:30,0.571,0.828,0.503,1.039,0.733,0.328,0.582,0.547,�k��,7.3,��
2023/04/21,08:40,0.569,0.828,0.500,1.038,0.735,0.328,0.581,0.547,��,4.7,��
2023/04/21,08:50,0.570,0.828,0.502,1.036,0.734,0.326,0.583,0.547,��,5.9,��
2023/04/21,09:00,0.572,0.826,0.501,1.037,0.736,0.327,0.583,0.548,���k��,4.4,��
2023/04/21,09:10,0.570,0.829,0.501,1.037,0.735,0.328,0.582,0.547,���k��,6.5,��
2023/04/21,09:20,0.570,0.831,0.501,1.038,0.735,0.327,0.583,0.547,��,6.6,��
2023/04/21,09:30,0.572,0.829,0.501,1.038,0.736,0.326,0.582,0.547,��,7.3,��
2023/04/21,09:40,0.572,0.828,0.501,1.036,0.736,0.328,0.584,0.549,��,9.2,��
2023/04/21,09:50,0.572,0.830,0.501,1.038,0.736,0.328,0.583,0.547,��,8.7,��
2023/04/21,10:00,0.572,0.828,0.502,1.036,0.736,0.328,0.584,0.549,��,8.7,��
2023/04/21,10:10,0.573,0.832,0.501,1.038,0.736,0.328,0.583,0.549,���k��,7.4,��
2023/04/21,10:20,0.573,0.830,0.502,1.037,0.735,0.327,0.584,0.549,���k��,9.2,��
2023/04/21,10:30,0.573,0.831,0.501,1.038,0.733,0.329,0.584,0.549,���k��,7.5,��
2023/04/21,10:40,0.572,0.831,0.503,1.041,0.737,0.328,0.584,0.549,���k��,6.6,��
2023/04/21,10:50,0.572,0.830,0.502,1.041,0.735,0.327,0.584,0.550,���k��,8.0,��
2023/04/21,11:00,0.574,0.830,0.502,1.041,0.737,0.328,0.585,0.550,���k��,7.5,��
2023/04/21,11:10,0.574,0.831,0.502,1.039,0.736,0.328,0.584,0.549,���k��,9.0,��
2023/04/21,11:20,0.571,0.832,0.501,1.040,0.735,0.326,0.583,0.549,���k��,9.4,��
2023/04/21,11:30,0.569,0.831,0.501,1.040,0.736,0.327,0.584,0.550,���쐼,7.4,��
2023/04/21,11:40,0.572,0.824,0.503,1.041,0.737,0.328,0.584,0.551,���k��,9.5,��
2023/04/21,11:50,0.572,0.828,0.503,1.041,0.740,0.329,0.585,0.551,���k��,6.0,��
2023/04/21,12:00,0.572,0.831,0.502,1.039,0.738,0.327,0.584,0.549,�k�k��,4.9,��
2023/04/21,12:10,0.570,0.830,0.503,1.040,0.738,0.329,0.583,0.550,�k,4.5,��
2023/04/21,12:20,0.572,0.831,0.504,1.037,0.738,0.329,0.585,0.551,�k�k��,4.0,��
2023/04/21,12:30,0.570,0.831,0.504,1.041,0.736,0.329,0.581,0.551,�k�k��,4.5,��
2023/04/21,12:40,0.571,0.831,0.503,1.040,0.738,0.327,0.583,0.550,�k,4.4,��
2023/04/21,12:50,0.574,0.832,0.504,1.043,0.739,0.328,0.582,0.551,�k,4.9,��
2023/04/21,13:00,0.571,0.830,0.502,1.041,0.741,0.329,0.582,0.552,�k,6.0,��
2023/04/21,13:10,0.570,0.831,0.503,1.043,0.738,0.327,0.582,0.551,�k,7.8,��
2023/04/21,13:20,0.571,0.835,0.503,1.042,0.737,0.326,0.583,0.551,�k,8.6,��
2023/04/21,13:30,0.570,0.831,0.503,1.042,0.739,0.325,0.583,0.549,�k,6.9,��
2023/04/21,13:40,0.567,0.832,0.501,1.041,0.739,0.326,0.583,0.550,�k�k��,8.4,��
2023/04/21,13:50,0.568,0.832,0.501,1.043,0.738,0.328,0.582,0.550,�k�k��,8.4,��
2023/04/21,14:00,0.569,0.832,0.501,1.042,0.739,0.327,0.582,0.549,�k�k��,8.1,��
2023/04/21,14:10,0.567,0.832,0.501,1.041,0.738,0.327,0.582,0.549,�k�k��,7.4,��
2023/04/21,14:20,0.565,0.833,0.501,1.043,0.738,0.327,0.581,0.549,�k�k��,6.8,��
2023/04/21,14:30,0.570,0.830,0.503,1.040,0.739,0.327,0.583,0.551,�k�k��,6.6,��
2023/04/21,14:40,0.572,0.831,0.502,1.043,0.739,0.327,0.583,0.550,�k��,7.0,��
2023/04/21,14:50,0.570,0.832,0.504,1.042,0.739,0.327,0.583,0.549,�k��,6.6,��
2023/04/21,15:00,0.571,0.831,0.504,1.041,0.740,0.327,0.581,0.550,�k��,5.9,��
2023/04/21,15:10,0.570,0.832,0.504,1.039,0.739,0.328,0.583,0.550,�k��,6.9,��
2023/04/21,15:20,0.570,0.833,0.504,1.037,0.739,0.327,0.582,0.548,�k��,7.0,��
2023/04/21,15:30,0.570,0.832,0.503,1.038,0.739,0.329,0.583,0.549,�k��,6.2,��
2023/04/21,15:40,0.570,0.833,0.502,1.041,0.737,0.328,0.583,0.550,�k��,6.5,��
2023/04/21,15:50,0.570,0.832,0.503,1.041,0.741,0.327,0.581,0.549,�k��,5.1,��
2023/04/21,16:00,0.571,0.834,0.504,1.040,0.737,0.327,0.582,0.550,�k�k��,3.8,��
2023/04/21,16:10,0.573,0.833,0.500,1.040,0.739,0.327,0.582,0.548,�k�k��,3.9,��
2023/04/21,16:20,0.568,0.832,0.502,1.041,0.738,0.328,0.582,0.549,�k��,3.4,��
2023/04/21,16:30,0.570,0.831,0.504,1.041,0.740,0.327,0.582,0.549,�k�k��,3.0,��
2023/04/21,16:40,0.571,0.833,0.500,1.041,0.738,0.328,0.582,0.549,�k�k��,3.5,��
2023/04/21,16:50,0.569,0.834,0.502,1.041,0.738,0.327,0.582,0.548,�k,3.6,��
2023/04/21,17:00,0.569,0.832,0.501,1.042,0.738,0.328,0.582,0.548,�k�k��,2.5,��
2023/04/21,17:10,0.568,0.834,0.501,1.044,0.738,0.328,0.582,0.549,�k�k��,1.9,��
2023/04/21,17:20,0.569,0.834,0.503,1.041,0.738,0.327,0.582,0.549,�k��,2.0,��
2023/04/21,17:30,0.570,0.832,0.502,1.042,0.737,0.328,0.583,0.550,�k��,1.5,��
2023/04/21,17:40,0.570,0.837,0.503,1.044,0.739,0.328,0.584,0.549,���k��,2.3,��
2023/04/21,17:50,0.571,0.835,0.502,1.045,0.739,0.329,0.583,0.549,�k��,3.6,��
2023/04/21,18:00,0.570,0.835,0.506,1.043,0.740,0.328,0.584,0.550,�k��,6.4,��
2023/04/21,18:10,0.571,0.835,0.506,1.044,0.742,0.329,0.583,0.551,�k��,7.1,��
2023/04/21,18:20,0.570,0.836,0.504,1.042,0.741,0.328,0.585,0.550,�k��,7.7,��
2023/04/21,18:30,0.573,0.835,0.506,1.042,0.742,0.328,0.584,0.550,�k��,8.5,��
2023/04/21,18:40,0.572,0.837,0.505,1.044,0.741,0.328,0.584,0.550,�k��,8.8,��
2023/04/21,18:50,0.572,0.835,0.505,1.045,0.740,0.328,0.585,0.550,�k��,7.7,��
2023/04/21,19:00,0.571,0.836,0.505,1.046,0.743,0.327,0.583,0.551,�k��,6.3,��
2023/04/21,19:10,0.572,0.835,0.504,1.040,0.740,0.328,0.584,0.548,�k�k��,4.6,��
2023/04/21,19:20,0.574,0.835,0.504,1.043,0.740,0.327,0.584,0.550,�k�k��,3.4,��
2023/04/21,19:30,0.571,0.835,0.505,1.043,0.740,0.326,0.585,0.551,�k,2.8,��
2023/04/21,19:40,0.572,0.836,0.506,1.043,0.740,0.328,0.583,0.551,�k,3.7,��
2023/04/21,19:50,0.571,0.836,0.504,1.044,0.739,0.327,0.584,0.549,�k�k��,3.1,��
2023/04/21,20:00,0.572,0.836,0.504,1.043,0.741,0.327,0.585,0.549,�k�k��,4.1,��
2023/04/21,20:10,0.573,0.835,0.504,1.043,0.740,0.327,0.583,0.550,�k��,4.8,��
2023/04/21,20:20,0.572,0.836,0.505,1.045,0.740,0.326,0.585,0.549,�k�k��,5.0,��
2023/04/21,20:30,0.571,0.835,0.504,1.044,0.741,0.328,0.585,0.550,�k�k��,4.7,��
2023/04/21,20:40,0.571,0.834,0.505,1.044,0.739,0.327,0.585,0.550,�k�k��,3.8,��
2023/04/21,20:50,0.573,0.834,0.504,1.043,0.742,0.328,0.583,0.550,�k�k��,5.4,��
2023/04/21,21:00,0.573,0.837,0.503,1.045,0.742,0.328,0.585,0.549,�k�k��,6.7,��
2023/04/21,21:10,0.571,0.835,0.505,1.043,0.741,0.327,0.583,0.551,�k�k��,7.5,��
2023/04/21,21:20,0.571,0.835,0.503,1.044,0.741,0.327,0.584,0.553,�k�k��,7.0,��
2023/04/21,21:30,0.570,0.838,0.503,1.044,0.740,0.326,0.584,0.549,�k�k��,5.5,��
2023/04/21,21:40,0.570,0.837,0.504,1.042,0.740,0.326,0.585,0.550,�k,6.5,��
2023/04/21,21:50,0.569,0.835,0.503,1.044,0.741,0.328,0.583,0.550,�k,6.2,��
2023/04/21,22:00,0.570,0.837,0.502,1.045,0.741,0.327,0.583,0.550,�k,7.2,��
2023/04/21,22:10,0.570,0.838,0.503,1.045,0.742,0.327,0.584,0.551,�k,6.4,��
2023/04/21,22:20,0.570,0.837,0.502,1.044,0.740,0.326,0.584,0.551,�k�k��,6.7,��
2023/04/21,22:30,0.570,0.837,0.503,1.044,0.741,0.328,0.583,0.550,�k,7.0,��
2023/04/21,22:40,0.571,0.836,0.503,1.044,0.739,0.328,0.582,0.551,�k�k��,7.3,��
2023/04/21,22:50,0.570,0.838,0.503,1.043,0.741,0.327,0.583,0.550,�k,7.8,��
2023/04/21,23:00,0.570,0.836,0.502,1.043,0.742,0.326,0.583,0.550,�k,7.7,��
2023/04/21,23:10,0.570,0.836,0.503,1.045,0.740,0.327,0.582,0.550,�k,6.9,��
2023/04/21,23:20,0.569,0.835,0.504,1.044,0.743,0.327,0.583,0.550,�k�k��,6.8,��
2023/04/21,23:30,0.569,0.836,0.503,1.045,0.740,0.328,0.584,0.549,�k�k��,6.5,��
2023/04/21,23:40,0.570,0.836,0.503,1.044,0.741,0.328,0.582,0.551,�k�k��,7.4,��
2023/04/21,23:50,0.570,0.838,0.503,1.043,0.741,0.327,0.583,0.551,�k,5.7,��
